Weather in Springfield

United States     42°06′07″N   72°35′24″W
temp.,
°C
wind,
m/s
gust,
m/s
humid.,
%
clouds,
%
prec.,
mm/h
press.,
hPa
HPBL,
m
17 may, mon
mon1723:00+9wnw0189100 0.0 102410
02:00+9nw00925 0.0 102410
05:00+7s11955 0.0 102510
08:00+14wnw126955 0.0 1026258
11:00+21nw12455 0.0 10251112
14:00+23wsw123670 0.0 10232497
17:00+21wsw45416 0.0 10231501
20:00+14nw227652 0.1 102520
18 may, tue
tue1823:00+11sse21855 0.0 102525
02:00+10s1190100 0.0 102514
05:00+11s1184100 0.0 102428
08:00+14wnw018090 0.2 1026155
11:00+21wnw364317 0.0 10251878
14:00+22wnw4647100 0.0 10232204
17:00+20w2659100 0.0 1022204
20:00+16wsw117799 0.0 102311
19 may, wed
wed1923:00+13wnw118912 0.2 102421
02:00+12nne119553 0.2 102412
05:00+11nw009598 0.0 102510
08:00+16wnw12765 0.0 1025205
11:00+23nnw25428 0.0 10251360
14:00+27n253490 0.0 10242706
17:00+26nw134430 0.0 10241383
20:00+19sw11705 0.0 102411
20 may, thu
thu2023:00+16nne11810 0.0 102511
02:00+15ne11850 0.0 102611
05:00+14ene11930 0.0 102811
08:00+18e13680 0.0 1029340
11:00+24sse21490 0.0 1029946
14:00+28ssw114037 0.0 10281820
17:00+25ssw5546100 0.0 1027880
20:00+16sse3761100 0.0 1029245
21 may, fri
fri2123:00+13s2766100 0.0 1030222
02:00+12s2674100 0.1 1030185
05:00+12sse2580100 0.1 1029162
08:00+15ssw3569100 0.1 1030342
11:00+20sw2361100 0.0 1029617
14:00+20wsw3472100 0.0 1028691
17:00+18sw2394100 0.8 1026352
20:00+16ssw2599100 2.3 1025219